Flag for Germany Weather past 2 weeks in Ahrensburg, Schleswig-Holstein, Germany

Now
63 °F

Passing clouds.


Feels Like: 63 °F
Forecast: 42 / 55 °F
Wind: 21 mph from Southwest

Location: Hamburg-Fuhlsbuettel

Current Time: May 6, 2015 at 4:43:24 PM

Latest Report: May 6, 2015 at 4:20 PM


Visibility: N/A

Pressure: 29.77 "Hg

Humidity: 42%

Dew point: 39 °F

Location of AhrensburgLocation

Historic Weather in Ahrensburg — Graph

°F

Ahrensburg temperature yesterday

Maximum temperature yesterday: 75 °F (at 3:50 PM)
Minimum temperature yesterday: 54 °F (at 12:20 AM)
Average temperature yesterday: 62 °F

Past Weeks' High & Low Weather Summary

 TemperatureHumidityPressure
High75 °F (May 5, 3:50 PM)100% (Apr 24, 1:50 AM)30.36 "Hg (Apr 24, 1:50 AM)
Low30 °F (Apr 28, 3:50 AM)33% (Apr 29, 2:20 PM)29.45 "Hg (May 5, 10:20 AM)
Average51 °F73%29.85 "Hg
* Reported Apr 21 3:20 PM — May 6 3:20 PM, Ahrensburg, Weather by CustomWeather, © 2015

Note: Actual official high and low records may vary slightly from our data, if they occured in-between our weather recording intervals... More about our weather records

Advertising

Ahrensburg weather history for previous 24 hours

 ConditionsComfort  
Time TempWeatherWind HumidityBarometerVisibility
3:20 PM
Wed, May 6
64 °FPassing clouds.24 mph40%29.77 "HgN/A
2:50 PM64 °FSunny.21 mph43%29.77 "Hg10 mi
2:20 PM64 °FPassing clouds.20 mph43%29.77 "HgN/A
1:50 PM63 °FSunny.23 mph45%29.80 "Hg10 mi
1:20 PM63 °FSunny.24 mph45%29.80 "Hg10 mi
12:50 PM63 °FScattered clouds.22 mph42%29.80 "HgN/A
12:20 PM63 °FScattered clouds.24 mph42%29.80 "HgN/A
11:50 AM63 °FScattered clouds.23 mph49%29.80 "HgN/A
11:20 AM61 °FScattered clouds.15 mph59%29.80 "HgN/A
10:50 AM61 °FScattered clouds.14 mph63%29.80 "HgN/A
10:20 AM59 °FPassing clouds.15 mph63%29.83 "HgN/A
9:50 AM59 °FPassing clouds.13 mph63%29.80 "HgN/A
9:20 AM57 °FSunny.13 mph72%29.83 "Hg10 mi
8:50 AM57 °FSunny.13 mph67%29.80 "Hg10 mi
8:20 AM54 °FPassing clouds.12 mph77%29.80 "HgN/A
7:50 AM54 °FPassing clouds.9 mph72%29.80 "HgN/A
7:20 AM52 °FSunny.8 mph77%29.80 "Hg10 mi
6:50 AM50 °FScattered clouds.9 mph76%29.80 "HgN/A
6:20 AM48 °FPassing clouds.8 mph82%29.80 "HgN/A
5:50 AM50 °FClear.9 mph76%29.77 "Hg10 mi
5:20 AM48 °FClear.8 mph82%29.77 "Hg10 mi
4:50 AM48 °FClear.8 mph82%29.77 "Hg10 mi
4:20 AM46 °FClear.6 mph82%29.80 "Hg10 mi
3:50 AM48 °FClear.8 mph82%29.80 "Hg10 mi
3:20 AM46 °FClear.8 mph82%29.80 "Hg10 mi
2:50 AM48 °FClear.7 mph76%29.80 "Hg10 mi
2:20 AM48 °FClear.8 mph76%29.80 "Hg10 mi
1:50 AM48 °FClear.7 mph76%29.80 "Hg10 mi
1:20 AM48 °FClear.6 mph76%29.80 "Hg10 mi
12:50 AM50 °FClear.7 mph71%29.80 "Hg10 mi
12:20 AM52 °FClear.9 mph67%29.80 "Hg10 mi
11:50 PM
Tue, May 5
54 °FPassing clouds.10 mph63%29.77 "HgN/A
11:20 PM54 °FPassing clouds.10 mph67%29.77 "HgN/A
10:50 PM55 °FPassing clouds.12 mph63%29.77 "HgN/A
10:20 PM55 °FPassing clouds.9 mph72%29.74 "HgN/A
9:50 PM57 °FScattered clouds.9 mph72%29.74 "HgN/A
9:20 PM57 °FScattered clouds.12 mph72%29.71 "HgN/A
8:50 PM59 °FScattered clouds.14 mph72%29.68 "HgN/A
8:20 PM59 °FSprinkles. Broken clouds.10 mph88%29.65 "HgN/A
7:50 PM59 °FBroken clouds.10 mph88%29.62 "HgN/A
7:20 PM61 °FBroken clouds.10 mph88%29.59 "HgN/A
6:50 PM61 °FBroken clouds.13 mph88%29.56 "HgN/A
6:20 PM59 °FSprinkles. Broken clouds.9 mph94%29.56 "HgN/A
5:50 PM59 °FSprinkles. Broken clouds.12 mph94%29.56 "HgN/A
5:20 PM59 °FStrong thunderstorms. Partly sunny.31 mph88%29.59 "Hg1 mi
4:50 PM73 °FPartly sunny.13 mph65%29.45 "HgN/A
4:20 PM73 °FScattered clouds.20 mph61%29.45 "HgN/A
Weather by CustomWeather, © 2015

See weather overviewHow to use our weather pages